This is the latest recevied weather packets stored in our database for station/object KB1YYC. If no packets are shown the sender has not sent any weather packets the latest 10 day(s).
| Time | Temp. | Humidity | Pressure | Rain* | Wind** | Luminosity | Snow |
|---|---|---|---|---|---|---|---|
| 1778192380 | 14.44° C | 34% | 1005 hPa | 0 mm | - | 33 W/m² | - |
| 1778192077 | 14.44° C | 34% | 1005.2 hPa | 0 mm | - | 27 W/m² | - |
| 1778191772 | 14.44° C | 34% | 1005.2 hPa | 0 mm | - | 27 W/m² | - |
| 1778191465 | 15° C | 35% | 1004.9 hPa | 0 mm | - | 29 W/m² | - |
| 1778191161 | 15° C | 35% | 1004.9 hPa | 0 mm | - | 33 W/m² | - |
| 1778190858 | 15° C | 34% | 1004.9 hPa | 0 mm | - | 33 W/m² | - |
| 1778190555 | 15° C | 35% | 1005.1 hPa | 0 mm | - | 33 W/m² | - |
| 1778190253 | 15° C | 34% | 1004.9 hPa | 0 mm | - | 31 W/m² | - |
| 1778189948 | 15° C | 35% | 1005.1 hPa | 0 mm | - | 32 W/m² | - |
| 1778189645 | 15.56° C | 36% | 1005.1 hPa | 0 mm | - | 33 W/m² | - |
| 1778189342 | 15° C | 34% | 1005 hPa | 0 mm | - | 47 W/m² | - |
| 1778189038 | 14.44° C | 35% | 1005.1 hPa | 0 mm | - | 39 W/m² | - |
| 1778188735 | 15° C | 36% | 1004.9 hPa | 0 mm | - | 33 W/m² | - |
| 1778188431 | 15° C | 34% | 1005 hPa | 0 mm | - | 37 W/m² | - |
| 1778188128 | 15° C | 35% | 1005.1 hPa | 0 mm | - | 39 W/m² | - |
| 1778187825 | 15.56° C | 33% | 1005 hPa | 0 mm | - | 38 W/m² | - |
| 1778187522 | 15.56° C | 33% | 1004.9 hPa | 0 mm | - | 37 W/m² | - |
| 1778187219 | 15.56° C | 33% | 1004.8 hPa | 0 mm | - | 42 W/m² | - |
| 1778186915 | 15.56° C | 35% | 1004.9 hPa | 0 mm | - | 49 W/m² | - |
| 1778186612 | 16.11° C | 33% | 1004.6 hPa | 0 mm | - | 62 W/m² | - |
| 1778186310 | 15.56° C | 33% | 1004.7 hPa | 0 mm | - | 52 W/m² | - |
| 1778186008 | 15.56° C | 33% | 1004.7 hPa | 0 mm | - | 88 W/m² | - |
| 1778185703 | 16.11° C | 32% | 1004.7 hPa | 0 mm | - | 60 W/m² | - |
| 1778185400 | 16.11° C | 34% | 1004.8 hPa | 0 mm | - | 75 W/m² | - |
| 1778185096 | 16.11° C | 34% | 1004.8 hPa | 0 mm | - | 107 W/m² | - |
* Rain latest hour (hover to see other rain measurements)
** Current wind speed in m/s (hover to see current wind gust speed)